Other Public Products
Issued by NWS Grand Forks, ND

Home | Current Version | Previous Version | Graphics & Text | Print | Product List | Glossary On
Versions: 1 2 3 4 5 6 7 8 9 10 11 12 13 14 15 16 17 18 19 20 21 22 23 24 25 26 27 28 29 30 31 32 33 34 35 36 37 38 39 40 41 42 43 44 45 46 47 48 49 50
810
FPUS83 KFGF 190110
OPUFGF
PRAIRIE TO PINES WEATHER ROUNDUP
NATIONAL WEATHER SERVICE EASTERN NORTH DAKOTA/GRAND FORKS ND
700 PM CST THU JAN 18 2018

 **SATELLITE DATA USED TO AUGMENT SKY COVER AT AUTOMATED STATIONS**
 *****  WEATHER ACROSS EASTERN NORTH DAKOTA  *****

CITY           SKY/WX    TMP DP  RH WIND       PRES   REMARKS
GRAND FORKS    MOCLDY    24  21  88 S10       29.64F WCI  14
GRND FORKS AFB FAIR      26  21  82 S9        29.63F WCI  17
GRND FORKS NWS   N/A     25 N/A N/A S13         N/A  WCI  13
BUXTON         NOT AVBL
DEVILS LAKE    FAIR      30  24  78 SW12      29.60F WCI  20
FARGO          FAIR      29  24  82 S10       29.69F WCI  20
WAHPETON ARPT  FAIR      28  25  86 S3        29.74S
$$

 *****  WEATHER ACROSS CENTRAL AND WESTERN NORTH DAKOTA  *****

CITY           SKY/WX    TMP DP  RH WIND       PRES   REMARKS
JAMESTOWN      FAIR      32  25  75 S7        29.64F
BISMARCK       FAIR      31  26  82 CALM      29.67F
MINOT          FAIR      41  29  62 SW18      29.58S
MINOT AFB      FAIR      39  29  69 W14       29.56S
GARRISON         N/A     32  27  81 SW6       29.62F
WILLISTON      FAIR      39  29  67 SW14      29.64S
DICKINSON      FAIR      36  29  75 W10       29.65S
HETTINGER      FAIR      39  27  62 SW10      29.71F
$$

 *****  OTHER OBSERVATIONS NORTHEAST NORTH DAKOTA  *****

CITY           SKY/WX    TMP DP  RH WIND       PRES   REMARKS
WALHALLA       FAIR      27  23  86 S6        29.57F WCI  20
LANGDON        FAIR      27  25  93 SW17      29.57F WCI  14
CAVALIER         N/A     27  23  86 S12       29.59F WCI  16
GRAFTON        FAIR      25  21  86 S9        29.64F WCI  15
CANDO          FAIR      25  25 100 S3        29.59F
FORT TOTTEN      N/A     33  24  69 S7        29.95S
ROLLA          FAIR      32  25  74 SW17      29.53F WCI  21
RUGBY          FAIR      28  23  80 S10       29.58F WCI  19
 ***** THE ABOVE OBSERVATIONS ARE NON NWS ARE NOT QUALITY
        CONTROLLED AND MAY MIS-REPORT RAIN FOR SNOW...
$$

 *****  OTHER OBSERVATIONS SOUTHEAST NORTH DAKOTA *****

CITY           SKY/WX    TMP DP  RH WIND       PRES   REMARKS
COOPERSTOWN    FAIR      30  25  80 SW13      29.64S WCI  20
VALLEY CITY    FAIR      27  27 100 S10       29.66F WCI  17
OAKES            N/A     32  28  86 S14       29.70F WCI  22
GWINNER          N/A     30  28  93 SW12      29.69F WCI  21
SHEYENNE NWR     N/A     26  25  97 SW6       29.95S WCI  19
BUFFALO        NOT AVBL
WYNDMERE       NOT AVBL
 ***** THE ABOVE OBSERVATIONS ARE NON NWS ARE NOT QUALITY
       CONTROLLED AND MAY MIS-REPORT RAIN FOR SNOW...
$$

  *****  WEATHER ACROSS NORTHERN MINNESOTA  *****

CITY           SKY/WX    TMP DP  RH WIND       PRES   REMARKS
FLAG ISLAND    CLOUDY    25  21  86 S3        29.63F
WARROAD        FAIR      21  18  86 CALM      29.64F
ROSEAU         FAIR      25  19  80 S8        29.63F WCI  16
HALLOCK        FAIR      23  19  86 S14       29.61F WCI  11
THF RVR FALLS  FAIR      22  18  85 S13       29.65F WCI  10
HALSTAD        NOT AVBL
FOSSTON        FAIR      19  16  86 S8        29.67F WCI   9
BAUDETTE       CLOUDY    28  24  85 SW5       29.65S WCI  23
WASKISH        FAIR      28  27  93 CALM      29.67S
CROOKSTON      FAIR      25  21  86 S13       29.65F WCI  13
$$
  *****  WEATHER ACROSS CENTRAL AND WEST MINNESOTA  *****

CITY           SKY/WX    TMP DP  RH WIND       PRES   REMARKS
BEMIDJI        FAIR      21  20  96 S3        29.66F
PARK RAPIDS    FAIR      25  19  78 S3        29.69S
WADENA         FAIR      25  19  80 SW3       29.71F
DETROIT LAKES  FAIR      27  21  80 S5        29.71S WCI  21
MOORHEAD       FAIR      27  21  80 S9        29.71F WCI  17
FERGUS FALLS   FAIR      28  25  86 S3        29.72S
ELBOW LAKE     FAIR      28  26  92 E5        29.73F WCI  23
MORRIS MN      FAIR      32  27  80 S3        29.73S
STAPLES        FAIR      19  18  93 CALM      29.72S
WHEATON        FAIR      34  25  69 CALM      29.75F
$$
  *****  WEATHER ELSEWHERE ACROSS MINNESOTA  *****

CITY           SKY/WX    TMP DP  RH WIND       PRES   REMARKS
DULUTH         FAIR      25  22  88 W3        29.70F
INTRNTL FALLS  CLOUDY    28  22  78 SW5       29.67S WCI  23
ELY            CLOUDY    28  23  80 W8        29.68F WCI  20
CLOQUET        FAIR      30  25  80 W3        29.71S
BRAINERD       FAIR      24  19  81 CALM      29.71F
HIBBING        FAIR      25  24  96 CALM      29.68F
ALEXANDRIA     FAIR      26  22  84 S3        29.73F
SAINT CLOUD    FAIR      26  23  88 S5        29.75F WCI  20
MINNEAPOLIS    CLOUDY    36  28  73 S5        29.79R
$$

  *****  WEATHER ACROSS SOUTH DAKOTA  *****

CITY           SKY/WX    TMP DP  RH WIND       PRES   REMARKS
SIOUX FALLS    CLOUDY    33  28  81 SW8       29.81F
BROOKINGS      FAIR      31  28  89 S8        29.78S WCI  23
WATERTOWN      FAIR      28  25  88 CALM      29.75S
HURON          FAIR      34  29  82 S6        29.77F
SISSETON         N/A     35  25  66 SW3       29.72F
ABERDEEN       FAIR      31  26  82 S9        29.74F WCI  23
MITCHELL       FAIR      37  31  78 S8        29.80S
PIERRE         FAIR      35  27  72 S6        29.75F
MOBRIDGE       FAIR      34  26  72 SE5       29.69F
RAPID CITY     FAIR      40  25  55 CALM      29.74F
$$

  *****  SOME WEATHER IN NEARBY STATES *****

CITY           SKY/WX    TMP DP  RH WIND       PRES   REMARKS
GLASGOW MT     CLOUDY    31  27  85 SE7       29.63F WCI  24
GREAT FALLS MT CLOUDY    42  32  67 SW15      29.69S
CHEYENNE WY    FAIR      44  19  36 SW12      29.97F
SCOTTSBLUFF NE FAIR      44  31  60 NW9       29.89R
OMAHA NE       MOCLDY    29  21  72 S10       29.96R WCI  20
DES MOINES IA  FAIR      33  21  61 SW13      29.95S WCI  24
DAVENPORT IA   FAIR      33  20  58 SW15G24   30.01F WCI  23
CHICAGO IL     FAIR      31  20  63 SW14G21   30.00S WCI  21
EAU CLAIRE WI  FAIR      30  22  72 SW3       29.79S
LA CROSSE WI   FAIR      31  21  66 S7        29.88R WCI  24
$$

  *****  SOME NATIONAL WEATHER *****

CITY           SKY/WX    TMP DP  RH WIND       PRES   REMARKS
LA GUARDIA NY  FAIR      29  14  53 NW13      30.04R WCI  19
RALEIGH NC     FAIR      23  20  88 SW6       30.22R WCI  16
ATLANTA GA     FAIR      33  13  43 NW9       30.34R
NEW ORLEANS LA FAIR      36  22  56 CALM      30.44R
OKLAHOMA CITY  FAIR      37  12  35 S12       30.18R
ALBUQUERQUE NM FAIR      47  10  22 S5        30.17S
SALT LAKE CITY CLOUDY    50  34  54 NW5       29.98F
LOS ANGELES CA FAIR      68  48  48 SW3       30.01F
BOISE ID       CLOUDY    45  37  73 N12       29.86F
SEATTLE WA     LGT RAIN  44  40  85 S13       29.78R
$$

*** WEATHER ACROSS MANITOBA...SASKATCHEWAN AND ONTARIO ***
                ***ONTARIO***

CITY           SKY/WX    TMP DP  RH WIND       PRES   REMARKS
GERALDTON      FRZ DRZL  16  14  93 E5        29.67F WCI   9
THUNDER BAY    CLOUDY    27  23  86 W3        29.70R
SIOUX LOOKOUT  FRZ DRZL  19  19 100 SE3       29.60F FOG
TORONTO        CLOUDY    23  16  74 SW9       29.92F WCI  13
BIG TROUT LK   FLURRIES   7   3  85 E5        29.68F WCI  -2
PICKLE LAKE    CLOUDY    14  10  85 SE8       29.61F WCI   3
DRYDEN         CLOUDY    23  23 100 SW8       29.61F WCI  14
KENORA         MOCLDY    21  18  86 SW8       29.61F WCI  12
$$
                *** MANITOBA***

CITY           SKY/WX    TMP DP  RH WIND       PRES   REMARKS
BRANDON        CLOUDY    23  19  86 W5        29.50F WCI  17
DAUPHIN        CLEAR     23  21  93 S2        29.43F
ISLAND LAKE    CLOUDY    14  10  85 SE8       29.57F WCI   3
PILOT MOUND      N/A     25  21  86 SW9         N/A  WCI  15
THE PAS        CLOUDY    14  10  85 SE7       29.39R WCI   4
THOMPSON       FLURRIES   9   3  78 E3        29.54F
WINNIPEG       CLOUDY    23  18  80 S16       29.57F WCI  10
LYNN LAKE      FLURRIES   9   7  92 E12       29.42F WCI  -6
CHURCHILL      FLURRIES   1  -2  85 S6        29.76S WCI -10
GILLAM         CLOUDY     0  -4  85 E6        29.65  WCI -12
$$
                ***SASKATCHEWAN***

CITY           SKY/WX    TMP DP  RH WIND       PRES   REMARKS
ESTEVAN        PTCLDY    34  28  80 SW10      29.51F
KINDERSLEY     MOCLDY    37  32  81 W24       29.40F
LLOYDMINSTER   PTCLDY    34  28  80 W12       29.31R
PRINCE ALBERT  PTCLDY    21  21 100 CALM      29.27R
REGINA         MOCLDY    37  30  75 SW12      29.46S
YORKTON        PTCLDY    37  30  75 SW18G28   29.35F



USA.gov is the U.S. government's official web portal to all federal, state and local government web resources and services.